EW8829 Weather Reports


Display with metric or nautical units.
time (UTC)temp
F
wind
direction
speed
MPH
gust
MPH
rain 1hr
in
rain 24hr
in
rain mn
in
humidity
%
barometer
mb
20260831231526 67 269 0.0 2.0 0.00 0.40 0.40 99 1016.6
20260831231021 67 124 0.0 1.0 0.00 0.40 0.40 99 1016.8
20260831230517 67 315 0.0 1.0 0.02 0.40 0.40 99 1016.8
20260831230016 67 233 0.0 0.0 0.02 0.40 0.40 99 1016.7
20260831225512 67 234 0.0 1.0 0.00 0.39 0.39 99 1016.8
20260831225012 67 55 0.0 1.0 0.00 0.39 0.39 99 1016.9
20260831224507 67 49 0.0 0.0 0.00 0.39 0.39 99 1016.9
20260831224001 67 20 1.0 1.0 0.00 0.39 0.39 99 1017.0
20260831223457 67 304 0.0 0.0 0.00 0.39 0.39 99 1017.0
20260831222953 67 145 0.0 1.0 0.02 0.39 0.39 99 1017.2
20260831222449 67 110 0.0 2.0 0.05 0.39 0.39 99 1017.2
20260831221943 67 32 0.0 1.0 0.05 0.39 0.39 99 1017.5
20260831221439 67 55 1.0 2.0 0.05 0.39 0.39 99 1017.4
20260831220934 67 76 0.0 0.0 0.07 0.38 0.38 99 1017.3
20260831220430 67 222 0.0 1.0 0.07 0.38 0.38 99 1017.4
20260831215925 67 322 0.0 1.0 0.05 0.37 0.37 99 1017.5
20260831215421 67 89 0.0 0.0 0.07 0.37 0.37 99 1017.6
20260831214917 67 119 0.0 2.0 0.02 0.36 0.36 99 1017.5
20260831214414 67 0 0.0 2.0 0.00 0.35 0.35 99 1017.7
20260831213915 67 131 0.0 1.0 0.02 0.35 0.35 99 1017.5
20260831213411 67 66 0.0 1.0 0.02 0.35 0.35 99 1017.4
20260831212911 67 103 0.0 0.0 0.00 0.35 0.35 99 1017.5
20260831212408 67 22 0.0 1.0 0.00 0.35 0.35 99 1017.5
20260831211907 67 48 0.0 1.0 0.02 0.35 0.35 99 1017.5
20260831211402 67 66 0.0 1.0 0.02 0.35 0.35 99 1017.7
20260831210901 67 60 0.0 2.0 0.00 0.35 0.35 99 1017.5
20260831210357 67 38 0.0 1.0 0.00 0.35 0.35 99 1017.5
20260831205852 67 89 0.0 0.0 0.00 0.35 0.35 99 1017.2
20260831205348 67 117 0.0 2.0 0.00 0.35 0.35 99 1017.6
20260831204843 67 44 0.0 2.0 0.00 0.35 0.35 99 1017.5
20260831204342 67 40 0.0 1.0 0.00 0.35 0.35 99 1017.6
20260831203841 67 23 0.0 2.0 0.00 0.35 0.35 99 1017.5
20260831203336 67 94 1.0 2.0 0.00 0.35 0.35 99 1017.7
20260831202834 67 19 0.0 0.0 0.00 0.35 0.35 99 1017.7
20260831202324 67 54 1.0 2.0 0.00 0.35 0.35 99 1017.6
20260831201818 67 34 0.0 2.0 0.00 0.35 0.35 99 1017.6
20260831201316 66 105 2.0 2.0 0.00 0.35 0.35 99 1017.6
20260831200813 67 3 1.0 2.0 0.00 0.35 0.35 99 1017.8
20260831200307 67 37 0.0 0.0 0.02 0.35 0.35 99 1017.8
20260831195802 66 36 0.0 1.0 0.09 0.35 0.35 99 1018.0
20260831195258 66 19 1.0 1.0 0.19 0.34 0.34 99 1017.6
20260831194753 66 31 1.0 2.0 0.14 0.33 0.33 99 1017.8
20260831194249 66 0 1.0 2.0 0.09 0.31 0.31 99 1017.9
20260831193742 66 31 0.0 2.0 0.07 0.30 0.30 99 1017.8
20260831193238 66 100 1.0 2.0 0.02 0.29 0.29 99 1017.8
20260831192733 66 249 0.0 2.0 0.02 0.29 0.29 99 1017.8
20260831192228 66 97 2.0 2.0 0.02 0.29 0.29 99 1017.8
20260831191724 66 114 3.0 3.0 0.00 0.29 0.29 99 1018.0
20260831191220 66 0 0.0 1.0 0.00 0.29 0.29 99 1018.2
20260831190715 66 23 0.0 0.0 0.00 0.29 0.29 99 1018.3
20260831190214 66 212 0.0 1.0 0.00 0.29 0.29 99 1018.4
20260831185709 66 116 0.0 2.0 0.00 0.29 0.29 99 1018.2
20260831185205 66 359 2.0 3.0 0.00 0.29 0.29 99 1018.2
20260831184704 66 124 0.0 2.0 0.00 0.29 0.29 99 1018.4
20260831184200 65 308 2.0 3.0 0.02 0.29 0.29 99 1018.7
20260831183659 65 41 1.0 4.0 0.02 0.28 0.28 99 1018.7
20260831183159 65 113 0.0 2.0 0.02 0.28 0.28 99 1018.8
20260831182658 65 302 1.0 4.0 0.00 0.28 0.28 99 1018.6
20260831182154 65 44 0.0 2.0 0.00 0.28 0.28 99 1018.7
20260831181649 65 257 2.0 2.0 0.02 0.28 0.28 99 1018.7
20260831181149 65 45 0.0 3.0 0.02 0.28 0.28 99 1019.0
20260831180644 65 76 0.0 2.0 0.02 0.28 0.28 99 1019.0
20260831180134 65 214 1.0 4.0 0.02 0.28 0.28 99 1019.2
20260831175628 65 181 2.0 2.0 0.02 0.27 0.27 99 1019.1
20260831175125 65 217 0.0 1.0 0.07 0.27 0.27 99 1019.1
20260831174620 65 280 2.0 4.0 0.02 0.26 0.26 99 1019.0
20260831174119 65 13 0.0 2.0 0.02 0.26 0.26 99 1019.2
20260831173618 65 247 3.0 3.0 0.02 0.26 0.26 99 1019.3
20260831173115 65 101 0.0 2.0 0.09 0.26 0.26 99 1019.5
20260831172614 65 60 0.0 2.0 0.09 0.25 0.25 99 1019.2
20260831172109 65 237 0.0 2.0 0.09 0.24 0.24 99 1019.5
20260831171604 65 259 1.0 2.0 0.05 0.24 0.24 99 1019.5
20260831171102 65 89 0.0 1.0 0.05 0.23 0.23 99 1019.5
20260831170557 65 76 0.0 2.0 0.07 0.22 0.22 99 1019.5
20260831170055 65 195 0.0 3.0 0.12 0.22 0.22 99 1019.6
20260831165554 65 203 1.0 3.0 0.09 0.21 0.21 99 1019.6
20260831165051 65 214 1.0 4.0 0.05 0.20 0.20 99 1019.8
20260831164547 65 215 2.0 3.0 0.05 0.20 0.20 99 1019.6
20260831164042 65 112 2.0 2.0 0.05 0.19 0.19 99 1019.6
20260831163537 66 66 0.0 2.0 0.05 0.19 0.19 99 1019.9
20260831163033 66 38 0.0 1.0 0.09 0.18 0.18 99 1019.9
20260831162531 66 129 0.0 0.0 0.14 0.17 0.17 99 1019.7
20260831162030 66 112 1.0 2.0 0.26 0.17 0.17 99 1019.9
20260831161526 66 55 1.0 2.0 0.24 0.15 0.15 99 1019.9
20260831161022 65 66 0.0 1.0 0.40 0.12 0.12 99 1019.9
20260831160521 66 315 2.0 2.0 0.64 0.11 0.11 98 1019.8
20260831160017 67 345 0.0 1.0 0.26 0.04 0.04 96 1019.8
20260831155511 67 336 0.0 2.0 0.00 0.00 0.00 91 1019.9
20260831155007 68 325 1.0 2.0 0.00 0.00 0.00 91 1019.8
20260831154503 68 338 1.0 2.0 0.00 0.00 0.00 89 1019.6
20260831154001 68 218 0.0 2.0 0.00 0.00 0.00 88 1019.5
20260831153457 68 269 0.0 2.0 0.00 0.00 0.00 88 1019.5
20260831152954 69 309 0.0 2.0 0.00 0.00 0.00 88 1019.6
20260831152449 69 165 0.0 2.0 0.00 0.00 0.00 87 1019.7
20260831151944 68 310 0.0 2.0 0.00 0.00 0.00 89 1019.3
20260831151443 68 241 2.0 2.0 0.00 0.00 0.00 88 1019.3
20260831150938 68 142 0.0 2.0 0.00 0.00 0.00 88 1019.7
20260831150434 68 293 2.0 4.0 0.00 0.00 0.00 88 1019.8
20260831145933 68 116 0.0 2.0 0.00 0.00 0.00 87 1019.6
20260831145429 68 141 0.0 2.0 0.00 0.00 0.00 88 1019.4
20260831144925 68 179 0.0 2.0 0.00 0.00 0.00 89 1019.3
20260831144415 68 286 2.0 2.0 0.00 0.00 0.00 89 1019.7
20260831143916 68 105 0.0 2.0 0.00 0.00 0.00 88 1019.6
20260831143410 68 50 1.0 1.0 0.00 0.00 0.00 90 1019.6
20260831142906 68 81 1.0 2.0 0.00 0.00 0.00 90 1019.6
20260831142402 68 66 0.0 1.0 0.00 0.00 0.00 90 1019.5
20260831141902 67 317 1.0 3.0 0.00 0.00 0.00 91 1019.5
20260831141355 68 228 3.0 4.0 0.00 0.00 0.00 90 1019.5
20260831140851 68 125 2.0 3.0 0.00 0.00 0.00 90 1019.6
20260831140345 67 342 0.0 2.0 0.00 0.00 0.00 90 1019.6
20260831135844 67 254 0.0 2.0 0.00 0.00 0.00 91 1019.5
20260831135339 67 321 0.0 2.0 0.00 0.00 0.00 92 1019.6
20260831134834 66 124 0.0 2.0 0.00 0.00 0.00 93 1019.7
20260831134331 66 191 0.0 2.0 0.00 0.00 0.00 93 1019.5
20260831133830 66 269 0.0 2.0 0.00 0.00 0.00 93 1019.7
20260831133329 65 139 0.0 2.0 0.00 0.00 0.00 94 1019.7
20260831132825 65 76 0.0 1.0 0.00 0.00 0.00 95 1019.8
20260831132320 64 109 2.0 2.0 0.00 0.00 0.00 96 1019.8
20260831131814 64 105 1.0 2.0 0.00 0.00 0.00 96 1019.9
20260831131311 64 87 0.0 2.0 0.00 0.00 0.00 96 1020.2
20260831130805 64 140 0.0 1.0 0.00 0.00 0.00 96 1020.1
20260831130301 64 110 0.0 1.0 0.00 0.00 0.00 96 1020.1
20260831125800 63 89 0.0 0.0 0.00 0.00 0.00 97 1020.0
20260831125256 63 44 0.0 1.0 0.00 0.00 0.00 98 1020.1
20260831124755 63 105 1.0 2.0 0.00 0.00 0.00 98 1020.0
20260831124252 63 106 2.0 3.0 0.00 0.00 0.00 98 1020.0
20260831123752 62 43 1.0 2.0 0.00 0.00 0.00 99 1020.0
20260831123251 62 45 1.0 2.0 0.00 0.00 0.00 99 1019.8
20260831122746 61 20 2.0 3.0 0.00 0.00 0.00 99 1020.0
20260831122242 61 86 2.0 3.0 0.00 0.00 0.00 99 1019.9
20260831121741 60 83 2.0 2.0 0.00 0.00 0.00 99 1020.1
20260831121237 60 71 2.0 2.0 0.00 0.00 0.00 99 1020.0
20260831120732 60 82 0.0 2.0 0.00 0.00 0.00 99 1020.3
20260831120227 60 82 1.0 1.0 0.00 0.00 0.00 99 1020.4
20260831115722 60 32 2.0 2.0 0.00 0.00 0.00 99 1020.2
20260831115219 60 53 2.0 2.0 0.00 0.00 0.00 99 1020.3
20260831114718 60 52 2.0 2.0 0.00 0.00 0.00 99 1020.4
20260831114217 59 53 1.0 2.0 0.00 0.00 0.00 99 1020.1
20260831113713 59 55 2.0 2.0 0.00 0.00 0.00 99 1020.1
20260831113212 59 31 1.0 2.0 0.00 0.00 0.00 99 1020.2
20260831112707 59 41 2.0 2.0 0.00 0.00 0.00 99 1019.9
20260831112202 59 58 0.0 1.0 0.00 0.00 0.00 99 1020.2
20260831111657 59 25 2.0 2.0 0.00 0.00 0.00 99 1020.0
20260831111154 59 89 2.0 2.0 0.00 0.00 0.00 99 1020.3
20260831110649 59 70 1.0 2.0 0.00 0.00 0.00 99 1020.1
20260831110144 59 43 1.0 2.0 0.00 0.00 0.00 99 1020.0
20260831105643 59 45 2.0 2.0 0.00 0.00 0.00 99 1019.8
20260831105138 59 27 2.0 2.0 0.00 0.00 0.00 99 1019.7
20260831104633 59 51 0.0 2.0 0.00 0.00 0.00 99 1019.5
20260831104130 59 60 2.0 2.0 0.00 0.00 0.00 99 1019.4
20260831103625 59 78 1.0 2.0 0.00 0.00 0.00 99 1019.6
20260831103120 59 45 1.0 2.0 0.00 0.00 0.00 99 1019.4
20260831102615 59 48 1.0 2.0 0.00 0.00 0.00 99 1019.2
20260831102110 59 19 0.0 1.0 0.00 0.00 0.00 99 1019.4
20260831101609 59 34 1.0 2.0 0.00 0.00 0.00 99 1019.5
20260831101105 59 38 2.0 2.0 0.00 0.00 0.00 99 1019.3
20260831100601 59 65 1.0 2.0 0.00 0.00 0.00 99 1019.5
20260831100052 59 15 1.0 2.0 0.00 0.00 0.00 99 1019.6
20260831095549 59 78 2.0 3.0 0.00 0.00 0.00 99 1019.6
20260831095044 59 29 2.0 3.0 0.00 0.00 0.00 99 1019.6
20260831094540 59 66 2.0 2.0 0.00 0.00 0.00 99 1019.3
20260831094036 59 59 0.0 2.0 0.00 0.00 0.00 99 1019.4
20260831093531 59 52 2.0 2.0 0.00 0.00 0.00 99 1019.4
20260831093027 59 12 0.0 2.0 0.00 0.00 0.00 99 1019.7
20260831092522 59 322 0.0 1.0 0.00 0.00 0.00 99 1019.5
20260831092018 59 87 1.0 2.0 0.00 0.00 0.00 99 1019.8
20260831091513 59 84 2.0 2.0 0.00 0.00 0.00 99 1019.7
20260831091009 59 51 1.0 2.0 0.00 0.00 0.00 99 1019.7
20260831090504 59 101 1.0 2.0 0.00 0.00 0.00 99 1019.5
20260831090000 59 37 2.0 2.0 0.00 0.00 0.00 99 1019.5
20260831085455 59 42 2.0 2.0 0.00 0.00 0.00 99 1019.7
20260831084954 58 63 1.0 2.0 0.00 0.00 0.00 99 1019.5
20260831084450 58 42 2.0 2.0 0.00 0.00 0.00 99 1019.3
20260831083947 59 25 2.0 2.0 0.00 0.00 0.00 99 1019.1
20260831083442 58 35 2.0 3.0 0.00 0.00 0.00 99 1019.1
20260831082941 58 27 2.0 2.0 0.00 0.00 0.00 99 1019.5
20260831082436 59 37 2.0 2.0 0.00 0.00 0.00 99 1019.6
20260831081931 58 89 2.0 2.0 0.00 0.00 0.00 99 1019.5
20260831081427 59 68 0.0 2.0 0.00 0.00 0.00 99 1019.6
20260831080923 59 100 2.0 2.0 0.00 0.00 0.00 99 1019.3
20260831080422 59 48 1.0 2.0 0.00 0.00 0.00 99 1019.1
20260831075918 59 22 0.0 1.0 0.00 0.00 0.00 99 1019.2
20260831075414 59 83 2.0 2.0 0.00 0.00 0.00 99 1019.2
20260831074909 60 89 1.0 2.0 0.00 0.00 0.00 99 1019.4
20260831074408 60 75 2.0 2.0 0.00 0.00 0.00 99 1019.4
20260831073903 60 21 1.0 2.0 0.00 0.00 0.00 99 1019.4
20260831073402 60 50 0.0 1.0 0.00 0.00 0.00 99 1019.4
20260831072857 60 53 0.0 1.0 0.00 0.00 0.00 99 1019.2
20260831072353 61 11 1.0 2.0 0.00 0.00 0.00 99 1019.2
20260831071849 61 37 1.0 2.0 0.00 0.00 0.00 99 1019.5
20260831071348 61 43 2.0 2.0 0.00 0.00 0.00 99 1019.4
20260831070843 61 39 1.0 2.0 0.00 0.00 0.00 99 1019.4
20260831070342 61 28 2.0 2.0 0.00 0.00 0.00 99 1019.4
20260831065841 61 67 2.0 3.0 0.00 0.00 0.00 99 1019.4
20260831065339 61 21 1.0 1.0 0.00 0.00 0.00 99 1019.4
20260831064834 62 73 1.0 2.0 0.00 0.00 0.00 99 1019.3
20260831064330 62 95 1.0 1.0 0.00 0.00 0.00 99 1019.3
20260831063826 62 310 0.0 1.0 0.00 0.00 0.00 99 1019.3
20260831063326 62 50 1.0 1.0 0.00 0.00 0.00 99 1019.0
20260831062826 62 58 0.0 2.0 0.00 0.00 0.00 99 1019.4
20260831062322 63 58 1.0 2.0 0.00 0.00 0.00 99 1019.5
20260831061821 63 64 1.0 1.0 0.00 0.00 0.00 99 1019.3
20260831061320 63 89 0.0 1.0 0.00 0.00 0.00 99 1019.6
20260831060816 63 66 0.0 0.0 0.00 0.00 0.00 99 1019.6
20260831060310 63 50 0.0 1.0 0.00 0.00 0.00 98 1019.8
20260831055809 63 43 0.0 2.0 0.00 0.00 0.00 98 1019.7
20260831055306 63 94 2.0 2.0 0.00 0.00 0.00 98 1019.7
20260831054800 63 89 0.0 0.0 0.00 0.00 0.00 98 1019.7
20260831054255 63 37 0.0 0.0 0.00 0.00 0.00 98 1019.6
20260831053754 63 85 0.0 1.0 0.00 0.00 0.00 98 1019.8
20260831053253 63 89 1.0 2.0 0.00 0.00 0.00 98 1019.9
20260831052747 63 22 0.0 0.0 0.00 0.00 0.00 98 1019.8
20260831052247 64 44 1.0 2.0 0.00 0.00 0.00 97 1019.9
20260831051745 64 82 1.0 2.0 0.00 0.00 0.00 97 1019.5
20260831051244 64 50 0.0 1.0 0.00 0.00 0.00 97 1020.0
20260831050739 64 31 0.0 1.0 0.00 0.00 0.00 97 1019.8
20260831050237 64 89 1.0 1.0 0.00 0.00 0.00 97 1019.8
20260831045732 64 55 0.0 1.0 0.00 0.00 0.00 97 1020.0
20260831045227 64 48 0.0 1.0 0.00 0.00 0.00 97 1019.7
20260831044721 64 103 0.0 0.0 0.00 0.00 0.00 97 1019.9
20260831044211 64 81 0.0 1.0 0.00 0.00 0.00 97 1019.9
20260831043707 64 89 0.0 0.0 0.00 0.00 0.00 97 1019.9
20260831043202 64 47 1.0 1.0 0.00 0.00 0.00 97 1020.0
20260831042701 64 297 0.0 1.0 0.00 0.00 0.00 97 1019.8
20260831042156 64 77 0.0 1.0 0.00 0.00 0.00 96 1020.0
20260831041650 64 88 1.0 1.0 0.00 0.00 0.00 96 1019.8
20260831041144 64 76 0.0 2.0 0.00 0.00 0.00 96 1019.7
20260831040640 64 22 0.0 0.0 0.00 0.00 0.00 96 1019.8
20260831040138 64 16 1.0 1.0 0.00 0.00 0.00 96 1019.6
20260831035638 64 43 1.0 1.0 0.00 0.00 0.00 96 1019.8
20260831035137 64 60 0.0 1.0 0.00 0.00 0.00 96 1019.7
20260831034636 65 89 1.0 2.0 0.00 0.00 0.00 96 1019.7
20260831034133 65 37 0.0 0.0 0.00 0.00 0.00 95 1020.1
20260831033628 65 47 0.0 2.0 0.00 0.00 0.00 96 1019.8
20260831033123 65 37 0.0 1.0 0.00 0.00 0.00 96 1019.6
20260831032622 65 77 1.0 1.0 0.00 0.00 0.00 95 1019.7
20260831032118 65 89 0.0 0.0 0.00 0.00 0.00 95 1019.7
20260831031618 65 89 1.0 1.0 0.00 0.00 0.00 95 1019.9
20260831031117 65 322 0.0 0.0 0.00 0.00 0.00 95 1019.9
20260831030616 65 37 0.0 0.0 0.00 0.00 0.00 95 1019.7
20260831030116 65 17 1.0 1.0 0.00 0.00 0.00 94 1019.7
20260831025614 65 29 1.0 1.0 0.00 0.00 0.00 94 1019.6
20260831025109 65 357 0.0 1.0 0.00 0.00 0.00 94 1019.8
20260831024606 65 72 1.0 2.0 0.00 0.00 0.00 94 1019.8
20260831024104 65 61 1.0 1.0 0.00 0.00 0.00 93 1019.7
20260831023602 65 309 0.0 0.0 0.00 0.00 0.00 92 1019.8
20260831023102 65 311 0.0 1.0 0.00 0.00 0.00 93 1019.7
20260831022556 65 22 0.0 0.0 0.00 0.00 0.00 92 1019.6
20260831022052 65 82 0.0 1.0 0.00 0.00 0.00 91 1019.8
20260831021550 65 22 0.0 1.0 0.00 0.00 0.00 92 1019.8
20260831021047 66 32 0.0 1.0 0.00 0.00 0.00 92 1019.8
20260831020542 66 66 0.0 2.0 0.00 0.00 0.00 90 1019.6
20260831020037 66 45 1.0 1.0 0.00 0.00 0.00 91 1019.8
20260831015532 66 55 0.0 2.0 0.00 0.00 0.00 90 1019.7
20260831015027 66 50 0.0 2.0 0.00 0.00 0.00 90 1019.7
20260831014522 66 64 1.0 2.0 0.00 0.00 0.00 89 1019.6
20260831014018 66 41 0.0 2.0 0.00 0.00 0.00 90 1019.7
20260831013514 67 30 1.0 2.0 0.00 0.00 0.00 88 1019.7
20260831013008 67 33 0.0 2.0 0.00 0.00 0.00 88 1019.7
20260831012503 67 328 1.0 2.0 0.00 0.00 0.00 87 1019.7
20260831012002 67 312 1.0 2.0 0.00 0.00 0.00 88 1019.6
20260831011451 66 129 0.0 3.0 0.00 0.00 0.00 89 1019.5
20260831010948 66 37 0.0 2.0 0.00 0.00 0.00 90 1019.3
20260831010447 67 89 1.0 2.0 0.00 0.00 0.00 90 1019.6
20260831005943 67 84 2.0 2.0 0.00 0.00 0.00 89 1019.2
20260831005439 67 89 1.0 2.0 0.00 0.00 0.00 89 1019.2
20260831004938 67 121 0.0 2.0 0.00 0.00 0.00 88 1019.3
20260831004435 67 93 1.0 1.0 0.00 0.00 0.00 89 1019.4
20260831003930 67 266 2.0 3.0 0.00 0.00 0.00 89 1019.1
20260831003426 67 141 0.0 1.0 0.00 0.00 0.00 91 1019.2
20260831002925 67 245 2.0 3.0 0.00 0.00 0.00 91 1019.1
20260831002424 66 315 0.0 0.0 0.00 0.00 0.00 92 1018.9
20260831001920 66 322 0.0 1.0 0.00 0.00 0.00 93 1018.9
20260831001415 66 328 1.0 1.0 0.00 0.00 0.00 94 1018.9
20260831000912 67 37 0.0 0.0 0.00 0.00 0.00 93 1018.7
20260831000410 67 11 0.0 0.0 0.00 0.00 0.00 92 1018.7
20260830235906 67 309 0.0 1.0 0.00 0.00 0.00 93 1018.4
20260830235401 67 28 1.0 2.0 0.00 0.00 0.00 92 1018.3
20260830234856 67 309 0.0 1.0 0.00 0.00 0.00 93 1018.3
20260830234351 67 347 0.0 0.0 0.00 0.00 0.00 93 1018.3
20260830233848 67 37 0.0 1.0 0.00 0.00 0.00 92 1018.4
20260830233343 67 301 1.0 1.0 0.00 0.00 0.00 93 1018.2
20260830232838 67 345 0.0 1.0 0.00 0.00 0.00 92 1018.3
20260830232334 67 343 0.0 1.0 0.00 0.00 0.00 93 1018.4
20260830231830 67 50 0.0 0.0 0.00 0.00 0.00 93 1018.1